Location: Bou Ouachlou
(32.7770°N, 5.6009°W)
Time: 03:05:24
(UTC+00:00)

Cosmos 1766 Rocket - Pass Details

Date: 07 June 2020
Orbit: 606 x 632 km, 82.5° (Epoch: 06 July)

Event Time Altitude Azimuth Distance (km) Brightness Sun altitude
Exits shadow 03:19:01 39° 176° (S) 916 4.1 -20.1°
Maximum altitude 03:20:35 79° 95° (E) 623 3.5 -19.9°
Drops below altitude 10° 03:24:54 10° 9° (N) 1,960 6.9 -19.3°
Sets 03:27:07 0° 8° (N) 2,866 7.8 -18.9°
